Time,TemperatureF,DewpointF,PressureIn,WindDirection,WindDirectionDegrees,WindSpeedMPH,WindSpeedGustMPH,Humidity,HourlyPrecipIn,Conditions,Clouds,dailyrainin,SoftwareType,DateUTC
2013-08-19 00:05:00,67.0,67.0,30.13,WNW,303,0.0,-999.0,98,-99.99,,,0.00,weatherlink.com 1.10,2013-08-19 04:05:00,
2013-08-19 00:20:00,67.1,67.0,30.13,WNW,303,0.0,-999.0,98,-99.99,,,0.00,weatherlink.com 1.10,2013-08-19 04:20:00,
2013-08-19 00:35:00,67.2,67.0,30.14,WNW,303,0.0,-999.0,98,-99.99,,,0.00,weatherlink.com 1.10,2013-08-19 04:35:00,
2013-08-19 00:50:00,67.0,67.0,30.14,WNW,303,0.0,-999.0,98,-99.99,,,0.00,weatherlink.com 1.10,2013-08-19 04:50:00,
2013-08-19 01:05:00,67.0,67.0,30.14,WNW,303,0.0,-999.0,98,-99.99,,,0.00,weatherlink.com 1.10,2013-08-19 05:05:00,
2013-08-19 01:20:00,67.3,67.0,30.14,WNW,303,0.0,-999.0,98,-99.99,,,0.00,weatherlink.com 1.10,2013-08-19 05:20:00,
2013-08-19 01:35:00,67.0,67.0,30.14,WNW,303,0.0,-999.0,98,-99.99,,,0.00,weatherlink.com 1.10,2013-08-19 05:35:00,
2013-08-19 01:50:00,66.8,66.0,30.13,WNW,303,0.0,-999.0,98,-99.99,,,0.00,weatherlink.com 1.10,2013-08-19 05:50:00,
2013-08-19 02:05:00,66.5,66.0,30.12,WNW,303,0.0,-999.0,98,-99.99,,,0.00,weatherlink.com 1.10,2013-08-19 06:05:00,
2013-08-19 02:20:00,66.6,66.0,30.12,WNW,303,0.0,-999.0,98,-99.99,,,0.01,weatherlink.com 1.10,2013-08-19 06:20:00,
2013-08-19 02:35:00,66.5,66.0,30.12,WNW,303,0.0,-999.0,98,-99.99,,,0.01,weatherlink.com 1.10,2013-08-19 06:35:00,
2013-08-19 02:50:00,66.4,66.0,30.12,WNW,303,0.0,-999.0,98,-99.99,,,0.01,weatherlink.com 1.10,2013-08-19 06:50:00,
2013-08-19 03:05:00,66.2,66.0,30.12,WNW,289,0.0,-999.0,98,-99.99,,,0.02,weatherlink.com 1.10,2013-08-19 07:05:00,
2013-08-19 03:20:00,66.2,66.0,30.11,West,270,0.0,-999.0,98,-99.99,,,0.02,weatherlink.com 1.10,2013-08-19 07:20:00,
2013-08-19 03:35:00,66.0,66.0,30.11,West,270,0.0,-999.0,98,-99.99,,,0.02,weatherlink.com 1.10,2013-08-19 07:35:00,
2013-08-19 03:50:00,66.1,66.0,30.11,West,270,0.0,-999.0,98,-99.99,,,0.02,weatherlink.com 1.10,2013-08-19 07:50:00,
2013-08-19 04:05:00,66.0,66.0,30.11,West,270,0.0,-999.0,98,-99.99,,,0.02,weatherlink.com 1.10,2013-08-19 08:05:00,
2013-08-19 04:20:00,65.8,65.0,30.11,West,270,0.0,-999.0,98,-99.99,,,0.02,weatherlink.com 1.10,2013-08-19 08:20:00,
2013-08-19 04:36:00,65.8,65.0,30.10,West,270,0.0,-999.0,98,-99.99,,,0.03,weatherlink.com 1.10,2013-08-19 08:36:00,
2013-08-19 04:51:00,65.7,65.0,30.10,West,270,0.0,-999.0,98,-99.99,,,0.04,weatherlink.com 1.10,2013-08-19 08:51:00,
2013-08-19 05:06:00,65.6,65.0,30.10,West,270,0.0,-999.0,98,-99.99,,,0.04,weatherlink.com 1.10,2013-08-19 09:06:00,
2013-08-19 05:21:00,65.5,65.0,30.10,West,270,0.0,-999.0,98,-99.99,,,0.04,weatherlink.com 1.10,2013-08-19 09:21:00,
2013-08-19 05:36:00,65.4,65.0,30.09,West,270,0.0,-999.0,98,-99.99,,,0.04,weatherlink.com 1.10,2013-08-19 09:36:00,
2013-08-19 05:51:00,65.3,65.0,30.10,West,270,0.0,-999.0,98,-99.99,,,0.04,weatherlink.com 1.10,2013-08-19 09:51:00,
2013-08-19 06:06:00,65.2,65.0,30.09,West,270,0.0,-999.0,98,-99.99,,,0.05,weatherlink.com 1.10,2013-08-19 10:06:00,
2013-08-19 06:21:00,65.3,65.0,30.09,West,270,0.0,-999.0,98,-99.99,,,0.05,weatherlink.com 1.10,2013-08-19 10:21:00,
2013-08-19 06:36:00,65.2,65.0,30.10,West,270,0.0,-999.0,98,-99.99,,,0.05,weatherlink.com 1.10,2013-08-19 10:36:00,
2013-08-19 06:51:00,65.3,65.0,30.10,West,270,0.0,-999.0,98,-99.99,,,0.05,weatherlink.com 1.10,2013-08-19 10:51:00,
2013-08-19 07:06:00,65.1,65.0,30.10,West,270,0.0,-999.0,98,-99.99,,,0.06,weatherlink.com 1.10,2013-08-19 11:06:00,
2013-08-19 07:21:00,65.1,65.0,30.10,West,270,0.0,-999.0,98,-99.99,,,0.06,weatherlink.com 1.10,2013-08-19 11:21:00,
2013-08-19 07:36:00,65.2,65.0,30.10,West,270,0.0,-999.0,98,-99.99,,,0.06,weatherlink.com 1.10,2013-08-19 11:36:00,
2013-08-19 07:51:00,65.4,65.0,30.11,West,270,0.0,-999.0,98,-99.99,,,0.06,weatherlink.com 1.10,2013-08-19 11:51:00,
2013-08-19 08:06:00,65.2,65.0,30.11,West,270,0.0,-999.0,98,-99.99,,,0.06,weatherlink.com 1.10,2013-08-19 12:06:00,
2013-08-19 08:21:00,65.5,65.0,30.11,West,270,0.0,-999.0,98,-99.99,,,0.07,weatherlink.com 1.10,2013-08-19 12:21:00,
2013-08-19 08:36:00,65.5,65.0,30.11,West,270,0.0,-999.0,98,-99.99,,,0.07,weatherlink.com 1.10,2013-08-19 12:36:00,
2013-08-19 08:51:00,66.0,66.0,30.11,West,270,0.0,-999.0,98,-99.99,,,0.07,weatherlink.com 1.10,2013-08-19 12:51:00,
2013-08-19 09:06:00,66.1,66.0,30.12,West,270,0.0,-999.0,98,-99.99,,,0.07,weatherlink.com 1.10,2013-08-19 13:06:00,
2013-08-19 09:21:00,66.2,66.0,30.12,West,270,0.0,-999.0,98,-99.99,,,0.09,weatherlink.com 1.10,2013-08-19 13:21:00,
2013-08-19 09:36:00,66.4,66.0,30.12,West,270,0.0,-999.0,98,-99.99,,,0.09,weatherlink.com 1.10,2013-08-19 13:36:00,
2013-08-19 09:51:00,66.3,66.0,30.12,West,270,0.0,-999.0,98,-99.99,,,0.09,weatherlink.com 1.10,2013-08-19 13:51:00,
2013-08-19 10:06:00,66.6,66.0,30.12,West,270,0.0,-999.0,98,-99.99,,,0.09,weatherlink.com 1.10,2013-08-19 14:06:00,
2013-08-19 10:21:00,66.6,66.0,30.13,West,270,0.0,-999.0,98,-99.99,,,0.09,weatherlink.com 1.10,2013-08-19 14:21:00,
2013-08-19 10:36:00,66.9,66.0,30.13,West,270,0.0,-999.0,98,-99.99,,,0.09,weatherlink.com 1.10,2013-08-19 14:36:00,
2013-08-19 10:51:00,66.7,66.0,30.13,West,270,0.0,-999.0,98,-99.99,,,0.10,weatherlink.com 1.10,2013-08-19 14:51:00,
2013-08-19 11:06:00,66.4,66.0,30.14,West,270,0.0,-999.0,98,-99.99,,,0.11,weatherlink.com 1.10,2013-08-19 15:06:00,
2013-08-19 11:21:00,67.1,67.0,30.14,West,270,0.0,-999.0,98,-99.99,,,0.12,weatherlink.com 1.10,2013-08-19 15:21:00,
2013-08-19 11:36:00,67.0,67.0,30.14,West,270,0.0,-999.0,98,-99.99,,,0.12,weatherlink.com 1.10,2013-08-19 15:36:00,
2013-08-19 11:51:00,67.1,67.0,30.14,West,270,0.0,-999.0,98,-99.99,,,0.13,weatherlink.com 1.10,2013-08-19 15:51:00,
2013-08-19 12:06:00,67.1,67.0,30.14,West,270,0.0,-999.0,98,-99.99,,,0.13,weatherlink.com 1.10,2013-08-19 16:06:00,
2013-08-19 12:21:00,67.0,67.0,30.14,West,270,0.0,-999.0,98,-99.99,,,0.13,weatherlink.com 1.10,2013-08-19 16:21:00,
2013-08-19 12:36:00,67.2,67.0,30.13,West,270,0.0,-999.0,98,-99.99,,,0.14,weatherlink.com 1.10,2013-08-19 16:36:00,
2013-08-19 12:51:00,67.2,67.0,30.13,West,270,0.0,-999.0,98,-99.99,,,0.14,weatherlink.com 1.10,2013-08-19 16:51:00,
2013-08-19 13:06:00,67.2,67.0,30.13,West,270,0.0,-999.0,98,-99.99,,,0.14,weatherlink.com 1.10,2013-08-19 17:06:00,
2013-08-19 13:21:00,67.7,67.0,30.13,West,270,0.0,-999.0,99,-99.99,,,0.14,weatherlink.com 1.10,2013-08-19 17:21:00,
2013-08-19 13:36:00,68.5,68.0,30.13,West,270,0.0,-999.0,99,-99.99,,,0.14,weatherlink.com 1.10,2013-08-19 17:36:00,
2013-08-19 13:51:00,68.2,68.0,30.12,West,270,0.0,-999.0,99,-99.99,,,0.14,weatherlink.com 1.10,2013-08-19 17:51:00,
2013-08-19 14:06:00,68.4,68.0,30.12,West,270,0.0,-999.0,99,-99.99,,,0.14,weatherlink.com 1.10,2013-08-19 18:06:00,
2013-08-19 14:21:00,69.0,69.0,30.12,West,270,0.0,-999.0,99,-99.99,,,0.14,weatherlink.com 1.10,2013-08-19 18:21:00,
2013-08-19 14:36:00,69.5,69.0,30.11,West,270,0.0,-999.0,99,-99.99,,,0.14,weatherlink.com 1.10,2013-08-19 18:36:00,
2013-08-19 14:51:00,69.9,70.0,30.11,West,270,0.0,-999.0,99,-99.99,,,0.14,weatherlink.com 1.10,2013-08-19 18:51:00,
2013-08-19 15:06:00,69.9,70.0,30.11,West,270,0.0,-999.0,99,-99.99,,,0.14,weatherlink.com 1.10,2013-08-19 19:06:00,
2013-08-19 15:21:00,70.9,70.0,30.10,West,270,0.0,-999.0,98,-99.99,,,0.14,weatherlink.com 1.10,2013-08-19 19:21:00,
2013-08-19 15:36:00,70.3,70.0,30.09,West,270,0.0,-999.0,98,-99.99,,,0.14,weatherlink.com 1.10,2013-08-19 19:36:00,
2013-08-19 15:51:00,72.0,71.0,30.08,West,270,0.0,-999.0,97,-99.99,,,0.14,weatherlink.com 1.10,2013-08-19 19:51:00,
2013-08-19 16:06:00,72.9,71.0,30.08,West,267,0.0,-999.0,92,-99.99,,,0.14,weatherlink.com 1.10,2013-08-19 20:06:00,
2013-08-19 16:21:00,74.0,72.0,30.07,WSW,258,0.0,-999.0,93,-99.99,,,0.14,weatherlink.com 1.10,2013-08-19 20:21:00,
2013-08-19 16:36:00,74.0,71.0,30.07,NNW,338,0.0,-999.0,89,-99.99,,,0.14,weatherlink.com 1.10,2013-08-19 20:36:00,
2013-08-19 16:51:00,73.0,70.0,30.06,NE,40,0.0,-999.0,90,-99.99,,,0.14,weatherlink.com 1.10,2013-08-19 20:51:00,
2013-08-19 17:06:00,73.6,71.0,30.06,NE,40,0.0,-999.0,91,-99.99,,,0.14,weatherlink.com 1.10,2013-08-19 21:06:00,
2013-08-19 17:21:00,74.3,71.0,30.05,WNW,293,0.0,-999.0,90,-99.99,,,0.14,weatherlink.com 1.10,2013-08-19 21:21:00,
2013-08-19 17:36:00,75.9,73.0,30.05,West,269,1.0,-999.0,89,-99.99,,,0.14,weatherlink.com 1.10,2013-08-19 21:36:00,
2013-08-19 17:51:00,76.6,72.0,30.05,SE,129,0.0,-999.0,86,-99.99,,,0.14,weatherlink.com 1.10,2013-08-19 21:51:00,
2013-08-19 18:06:00,76.0,71.0,30.05,SE,129,0.0,-999.0,84,-99.99,,,0.14,weatherlink.com 1.10,2013-08-19 22:06:00,
2013-08-19 18:21:00,75.8,71.0,30.05,SE,129,0.0,-999.0,86,-99.99,,,0.14,weatherlink.com 1.10,2013-08-19 22:21:00,
2013-08-19 18:36:00,75.2,71.0,30.05,West,266,0.0,-999.0,87,-99.99,,,0.14,weatherlink.com 1.10,2013-08-19 22:36:00,
2013-08-19 18:51:00,74.8,71.0,30.05,SW,231,0.0,-999.0,88,-99.99,,,0.14,weatherlink.com 1.10,2013-08-19 22:51:00,
2013-08-19 19:06:00,74.4,71.0,30.05,SW,231,0.0,-999.0,88,-99.99,,,0.14,weatherlink.com 1.10,2013-08-19 23:06:00,
2013-08-19 19:21:00,74.0,70.0,30.05,WNW,296,0.0,-999.0,88,-99.99,,,0.14,weatherlink.com 1.10,2013-08-19 23:21:00,
2013-08-19 19:36:00,74.0,70.0,30.04,WNW,296,0.0,-999.0,88,-99.99,,,0.14,weatherlink.com 1.10,2013-08-19 23:36:00,
2013-08-19 19:51:00,73.3,70.0,30.05,WNW,296,0.0,-999.0,89,-99.99,,,0.14,weatherlink.com 1.10,2013-08-19 23:51:00,
2013-08-19 20:06:00,72.9,70.0,30.05,WNW,296,1.0,-999.0,90,-99.99,,,0.14,weatherlink.com 1.10,2013-08-20 00:06:00,
2013-08-19 20:21:00,72.5,70.0,30.05,WNW,287,0.0,-999.0,90,-99.99,,,0.14,weatherlink.com 1.10,2013-08-20 00:21:00,
2013-08-19 20:36:00,71.7,69.0,30.05,WNW,287,0.0,-999.0,92,-99.99,,,0.14,weatherlink.com 1.10,2013-08-20 00:36:00,
2013-08-19 20:51:00,71.0,69.0,30.06,WNW,287,0.0,-999.0,92,-99.99,,,0.14,weatherlink.com 1.10,2013-08-20 00:51:00,
2013-08-19 21:06:00,70.5,69.0,30.06,WNW,287,0.0,-999.0,94,-99.99,,,0.14,weatherlink.com 1.10,2013-08-20 01:06:00,
2013-08-19 21:21:00,70.1,68.0,30.07,WNW,287,0.0,-999.0,94,-99.99,,,0.14,weatherlink.com 1.10,2013-08-20 01:21:00,
2013-08-19 21:36:00,69.9,68.0,30.07,WNW,284,0.0,-999.0,94,-99.99,,,0.14,weatherlink.com 1.10,2013-08-20 01:36:00,
2013-08-19 21:51:00,69.6,68.0,30.08,West,274,2.0,-999.0,94,-99.99,,,0.14,weatherlink.com 1.10,2013-08-20 01:51:00,
2013-08-19 22:06:00,69.7,68.0,30.09,West,270,0.0,-999.0,94,-99.99,,,0.14,weatherlink.com 1.10,2013-08-20 02:06:00,
2013-08-19 22:21:00,69.4,68.0,30.09,West,263,1.0,-999.0,94,-99.99,,,0.14,weatherlink.com 1.10,2013-08-20 02:21:00,
2013-08-19 22:36:00,69.4,68.0,30.09,West,263,0.0,-999.0,94,-99.99,,,0.14,weatherlink.com 1.10,2013-08-20 02:36:00,
2013-08-19 22:51:00,69.3,68.0,30.09,West,260,0.0,-999.0,94,-99.99,,,0.14,weatherlink.com 1.10,2013-08-20 02:51:00,
2013-08-19 23:06:00,69.3,68.0,30.09,WSW,237,0.0,-999.0,94,-99.99,,,0.14,weatherlink.com 1.10,2013-08-20 03:06:00,
2013-08-19 23:21:00,68.9,67.0,30.09,SW,233,0.0,-999.0,94,-99.99,,,0.14,weatherlink.com 1.10,2013-08-20 03:21:00,
2013-08-19 23:36:00,68.9,68.0,30.09,SW,234,0.0,-999.0,95,-99.99,,,0.14,weatherlink.com 1.10,2013-08-20 03:36:00,
2013-08-19 23:51:00,68.9,68.0,30.10,SW,233,0.0,-999.0,95,-99.99,,,0.14,weatherlink.com 1.10,2013-08-20 03:51:00,